Otaci

Moldova     48˚26′44″N   27˚46′41″E
temp.,
°C
wind,
m/s
gust,
m/s
humid.,
%
clouds,
%
prec.,
mm/h
press.,
hPa
HPBL,
m
2 december, wed
wed223:00−3˚nne368732 0.0 1028231
02:00−2˚nne249361 0.1 1027195
05:00−2˚ne239598 0.1 1027154
08:00−2˚nne129793 0.3 102748
11:00e128573 0.0 1027309
14:00+1˚se127985 0.1 1025468
17:00−1˚se118767 0.0 102522
20:00−1˚e128874 0.0 102525
3 december, thu
thu323:00−2˚ese239228 0.0 102561
02:00−2˚se229529 0.0 102436
05:00−1˚ese349479 0.0 1023107
08:00se389673 0.0 1023355
11:00+2˚se5989100 0.0 1023651
14:00+2˚se4988100 0.0 1021510
17:00+1˚ese4109389 0.0 1020323
20:00ese4109678 0.0 1020288
4 december, fri
fri423:00+3˚ese51198100 0.0 1019351
02:00+3˚sse61192100 0.0 1018524
05:00+2˚se6139455 0.0 1017452
08:00+2˚se7159146 0.0 1017448
11:00+6˚se8168816 0.0 1016858
14:00+7˚se9179058 0.0 1015789
17:00+8˚se91684100 0.0 1015769
20:00+7˚se91688100 0.0 1017743
5 december, sat
sat523:00+7˚se81589100 0.0 1018738
02:00+7˚se8149098 0.0 1018661
05:00+7˚se8139197 0.0 1018640
08:00+6˚se7139099 0.0 1020688
11:00+7˚se81286100 0.0 1020756
14:00+7˚se81283100 0.0 1020738
17:00+6˚se71284100 0.0 1021691
20:00+5˚se7128696 0.0 1022629
6 december, sun
sun623:00+4˚se71185100 0.0 1022638
02:00+3˚se61088100 0.0 1023620
05:00+3˚se71088100 0.0 1023637
08:00+2˚se71185100 0.0 1023647
11:00+2˚se71184100 0.0 1023645
14:00+2˚se71080100 0.0 1022726
17:00+2˚se81275100 0.0 1021710
20:00+1˚se7137874 0.0 1021721